AAL895 KBOS-CYYZ

Flight info

Callsign AAL895
Flight time 1h 38m
Altitude 38000
Route HYLND7 HYLND DCT CAM Q822 GONZZ DCT WOZEE LINNG3
Aircraft A20N/M-SDE2E3FGHIRWXY/LB1

Departure

Time 2026-05-08 00:27
Airport Boston Logan International Airport (KBOS)

Arrival

Time 2026-05-08 02:06
Airport Toronto Pearson International Airport (CYYZ)
Time Latitude Longitude Altitude Speed Heading
2026-05-07 23:50 42.36468 -71.01465 19 ft 0 kts 342°
2026-05-08 00:15 42.36467 -71.01465 19 ft 0 kts 343°
2026-05-08 00:16 42.36455 -71.01457 19 ft 2 kts 318°
2026-05-08 00:16 42.36445 -71.01441 19 ft 2 kts 297°
2026-05-08 00:16 42.36441 -71.01421 19 ft 2 kts 275°
2026-05-08 00:16 42.36442 -71.01402 19 ft 2 kts 252°
2026-05-08 00:17 42.36449 -71.01383 19 ft 2 kts 230°
2026-05-08 00:17 42.36460 -71.01369 19 ft 2 kts 208°
2026-05-08 00:17 42.36474 -71.01363 19 ft 1 kts 198°
2026-05-08 00:17 42.36477 -71.01361 19 ft 0 kts 200°
2026-05-08 00:18 42.36476 -71.01362 18 ft 0 kts 200°
2026-05-08 00:18 42.36470 -71.01365 18 ft 1 kts 201°
2026-05-08 00:19 42.36455 -71.01372 18 ft 2 kts 201°
2026-05-08 00:19 42.36428 -71.01387 18 ft 5 kts 201°
2026-05-08 00:19 42.36378 -71.01392 18 ft 8 kts 156°
2026-05-08 00:19 42.36333 -71.01312 18 ft 12 kts 121°
2026-05-08 00:20 42.36283 -71.01199 18 ft 15 kts 121°
2026-05-08 00:20 42.36230 -71.01056 18 ft 17 kts 113°
2026-05-08 00:20 42.36178 -71.00897 16 ft 19 kts 115°
2026-05-08 00:20 42.36123 -71.00729 15 ft 19 kts 109°
2026-05-08 00:21 42.36080 -71.00552 15 ft 19 kts 110°
2026-05-08 00:21 42.36034 -71.00378 15 ft 19 kts 109°
2026-05-08 00:21 42.35990 -71.00203 15 ft 19 kts 109°
2026-05-08 00:21 42.35925 -71.00036 13 ft 20 kts 137°
2026-05-08 00:22 42.35826 -70.99904 12 ft 20 kts 135°
2026-05-08 00:22 42.35725 -70.99773 12 ft 19 kts 136°
2026-05-08 00:22 42.35630 -70.99641 12 ft 19 kts 135°
2026-05-08 00:22 42.35533 -70.99510 12 ft 16 kts 130°
2026-05-08 00:23 42.35509 -70.99480 12 ft 0 kts 134°
2026-05-08 00:23 42.35508 -70.99478 12 ft 1 kts 133°
2026-05-08 00:23 42.35487 -70.99434 12 ft 10 kts 107°
2026-05-08 00:24 42.35490 -70.99384 12 ft 0 kts 76°
2026-05-08 00:25 42.35492 -70.99371 12 ft 4 kts 76°
2026-05-08 00:25 42.35514 -70.99303 12 ft 9 kts 45°
2026-05-08 00:25 42.35576 -70.99307 12 ft 10 kts 318°
2026-05-08 00:25 42.35588 -70.99322 12 ft 0 kts 315°
2026-05-08 00:26 42.35607 -70.99349 12 ft 26 kts 314°
2026-05-08 00:26 42.35926 -70.99777 12 ft 99 kts 314°
2026-05-08 00:27 42.36556 -71.00635 31 ft 155 kts 312°
2026-05-08 00:27 42.37330 -71.01698 581 ft 161 kts 314°
2026-05-08 00:27 42.38141 -71.02725 1308 ft 163 kts 316°
2026-05-08 00:27 42.38892 -71.03896 1898 ft 175 kts 302°
2026-05-08 00:28 42.39514 -71.05397 2439 ft 192 kts 299°
2026-05-08 00:28 42.40162 -71.07034 2973 ft 210 kts 300°
2026-05-08 00:28 42.40924 -71.08805 3524 ft 227 kts 308°
2026-05-08 00:28 42.42152 -71.10259 4078 ft 245 kts 330°
2026-05-08 00:29 42.43724 -71.11189 4865 ft 253 kts 336°
2026-05-08 00:29 42.45378 -71.12087 5754 ft 257 kts 336°
2026-05-08 00:29 42.47038 -71.12991 6593 ft 262 kts 336°
2026-05-08 00:29 42.48728 -71.13905 7457 ft 266 kts 336°
2026-05-08 00:30 42.50443 -71.14838 8329 ft 268 kts 335°
2026-05-08 00:30 42.52176 -71.15688 9179 ft 272 kts 337°
2026-05-08 00:30 42.53971 -71.16504 10040 ft 274 kts 337°
2026-05-08 00:30 42.55790 -71.17329 10681 ft 283 kts 336°
2026-05-08 00:31 42.57699 -71.18203 11067 ft 301 kts 336°
2026-05-08 00:31 42.59751 -71.19142 11461 ft 317 kts 336°
2026-05-08 00:31 42.61855 -71.20098 12103 ft 324 kts 335°
2026-05-08 00:31 42.64014 -71.21074 12847 ft 328 kts 335°
2026-05-08 00:32 42.66182 -71.22058 13550 ft 332 kts 334°
2026-05-08 00:32 42.68378 -71.23057 14215 ft 336 kts 334°
2026-05-08 00:32 42.70600 -71.24074 14875 ft 341 kts 333°
2026-05-08 00:32 42.72844 -71.25101 15460 ft 347 kts 333°
2026-05-08 00:33 42.75129 -71.26224 16044 ft 347 kts 326°
2026-05-08 00:33 42.77016 -71.28088 16609 ft 332 kts 303°
2026-05-08 00:33 42.78244 -71.30642 17239 ft 320 kts 285°
2026-05-08 00:33 42.78782 -71.33494 17851 ft 313 kts 273°
2026-05-08 00:34 42.79106 -71.36451 18481 ft 316 kts 272°
2026-05-08 00:34 42.79436 -71.39407 19079 ft 319 kts 272°
2026-05-08 00:34 42.79766 -71.42385 19487 ft 327 kts 273°
2026-05-08 00:34 42.80108 -71.45471 19991 ft 331 kts 272°
2026-05-08 00:35 42.80453 -71.48569 20539 ft 335 kts 273°
2026-05-08 00:35 42.80800 -71.51722 21098 ft 337 kts 272°
2026-05-08 00:35 42.81150 -71.54874 21650 ft 339 kts 272°
2026-05-08 00:35 42.81495 -71.58013 22210 ft 341 kts 272°
2026-05-08 00:36 42.81849 -71.61204 22738 ft 343 kts 272°
2026-05-08 00:36 42.82199 -71.64425 23176 ft 348 kts 272°
2026-05-08 00:36 42.82559 -71.67725 23474 ft 356 kts 272°
2026-05-08 00:36 42.82922 -71.71081 23676 ft 366 kts 272°
2026-05-08 00:37 42.83293 -71.74533 23875 ft 376 kts 272°
2026-05-08 00:37 42.83679 -71.78103 24066 ft 385 kts 272°
2026-05-08 00:37 42.84072 -71.81750 24244 ft 393 kts 272°
2026-05-08 00:38 42.84875 -71.89210 24582 ft 408 kts 272°
2026-05-08 00:38 42.85289 -71.93074 24906 ft 409 kts 273°
2026-05-08 00:38 42.85698 -71.96884 25392 ft 407 kts 272°
2026-05-08 00:38 42.86102 -72.00657 25880 ft 405 kts 272°
2026-05-08 00:39 42.86507 -72.04463 26349 ft 403 kts 272°
2026-05-08 00:39 42.86903 -72.08195 26823 ft 401 kts 272°
2026-05-08 00:39 42.87300 -72.11964 27249 ft 400 kts 272°
2026-05-08 00:39 42.87687 -72.15670 27648 ft 399 kts 272°
2026-05-08 00:40 42.88075 -72.19387 28077 ft 398 kts 272°
2026-05-08 00:40 42.88462 -72.23106 28471 ft 396 kts 272°
2026-05-08 00:40 42.88845 -72.26794 28868 ft 394 kts 272°
2026-05-08 00:40 42.89225 -72.30474 29236 ft 393 kts 272°
2026-05-08 00:41 42.89605 -72.34169 29599 ft 392 kts 272°
2026-05-08 00:41 42.89978 -72.37805 29932 ft 390 kts 272°
2026-05-08 00:41 42.90352 -72.41466 30269 ft 389 kts 272°
2026-05-08 00:41 42.90721 -72.45093 30573 ft 388 kts 272°
2026-05-08 00:42 42.91089 -72.48712 30838 ft 387 kts 272°
2026-05-08 00:42 42.91457 -72.52338 31084 ft 386 kts 272°
2026-05-08 00:42 42.91823 -72.55965 31333 ft 386 kts 272°
2026-05-08 00:42 42.92182 -72.59540 31580 ft 386 kts 272°
2026-05-08 00:43 42.92548 -72.63176 31824 ft 385 kts 272°
2026-05-08 00:43 42.92908 -72.66788 32063 ft 384 kts 272°
2026-05-08 00:43 42.93267 -72.70392 32354 ft 383 kts 272°
2026-05-08 00:43 42.93621 -72.73944 32602 ft 382 kts 272°
2026-05-08 00:44 42.93975 -72.77516 32793 ft 382 kts 272°
2026-05-08 00:44 42.94330 -72.81117 32983 ft 382 kts 272°
2026-05-08 00:44 42.94682 -72.84679 33177 ft 382 kts 271°
2026-05-08 00:44 42.95032 -72.88243 33375 ft 382 kts 271°
2026-05-08 00:45 42.95382 -72.91862 33564 ft 381 kts 272°
2026-05-08 00:45 42.95732 -72.95433 33774 ft 381 kts 272°
2026-05-08 00:45 42.96077 -72.99004 33953 ft 380 kts 272°
2026-05-08 00:45 42.96422 -73.02569 34121 ft 380 kts 272°
2026-05-08 00:46 42.96762 -73.06085 34292 ft 381 kts 272°
2026-05-08 00:46 42.97107 -73.09697 34452 ft 381 kts 272°
2026-05-08 00:46 42.97447 -73.13251 34604 ft 381 kts 272°
2026-05-08 00:46 42.97786 -73.16818 34769 ft 381 kts 272°
2026-05-08 00:47 42.98126 -73.20403 34917 ft 381 kts 272°
2026-05-08 00:47 42.98468 -73.24005 35064 ft 381 kts 272°
2026-05-08 00:47 42.98803 -73.27548 35213 ft 381 kts 272°
2026-05-08 00:47 42.99141 -73.31145 35327 ft 381 kts 272°
2026-05-08 00:48 42.99400 -73.34731 35431 ft 380 kts 270°
2026-05-08 00:48 42.99533 -73.38286 35579 ft 379 kts 268°
2026-05-08 00:48 42.99629 -73.41884 35704 ft 379 kts 268°
2026-05-08 00:48 42.99722 -73.45482 35827 ft 379 kts 268°
2026-05-08 00:49 42.99812 -73.49050 35920 ft 380 kts 268°
2026-05-08 00:49 42.99902 -73.52654 36032 ft 380 kts 268°
2026-05-08 00:49 42.99989 -73.56238 36146 ft 380 kts 268°
2026-05-08 00:49 43.00074 -73.59849 36255 ft 380 kts 268°
2026-05-08 00:50 43.00160 -73.63472 36352 ft 381 kts 268°
2026-05-08 00:50 43.00241 -73.67059 36461 ft 381 kts 268°
2026-05-08 00:50 43.00323 -73.70639 36593 ft 381 kts 268°
2026-05-08 00:51 43.00485 -73.77903 36780 ft 383 kts 268°
2026-05-08 00:51 43.00563 -73.81511 36901 ft 383 kts 268°
2026-05-08 00:51 43.00641 -73.85111 37008 ft 382 kts 268°
2026-05-08 00:51 43.00715 -73.88719 37121 ft 382 kts 268°
2026-05-08 00:52 43.00791 -73.92383 37227 ft 382 kts 268°
2026-05-08 00:52 43.00937 -73.99624 37415 ft 383 kts 268°
2026-05-08 00:53 43.01078 -74.06846 37579 ft 383 kts 268°
2026-05-08 00:53 43.01216 -74.14097 37722 ft 384 kts 268°
2026-05-08 00:54 43.01348 -74.21408 37859 ft 386 kts 268°
2026-05-08 00:54 43.01583 -74.28724 37874 ft 388 kts 270°
2026-05-08 00:55 43.01917 -74.36042 37877 ft 387 kts 270°
2026-05-08 00:55 43.02249 -74.43377 37874 ft 388 kts 270°
2026-05-08 00:56 43.02570 -74.50700 37876 ft 388 kts 270°
2026-05-08 00:56 43.02890 -74.58016 37884 ft 389 kts 270°
2026-05-08 00:57 43.03207 -74.65376 37882 ft 390 kts 269°
2026-05-08 00:57 43.03518 -74.72759 37891 ft 389 kts 269°
2026-05-08 00:58 43.03825 -74.80125 37901 ft 390 kts 270°
2026-05-08 00:58 43.04128 -74.87510 37900 ft 392 kts 270°
2026-05-08 00:59 43.04428 -74.94923 37895 ft 394 kts 270°
2026-05-08 00:59 43.04723 -75.02367 37902 ft 394 kts 270°
2026-05-08 01:00 43.05012 -75.09789 37887 ft 393 kts 270°
2026-05-08 01:00 43.05299 -75.17246 37887 ft 393 kts 270°
2026-05-08 01:01 43.05574 -75.24667 37895 ft 393 kts 270°
2026-05-08 01:01 43.05841 -75.32129 37899 ft 394 kts 269°
2026-05-08 01:02 43.06055 -75.39572 37901 ft 395 kts 269°
2026-05-08 01:02 43.06262 -75.47053 37909 ft 395 kts 269°
2026-05-08 01:03 43.06466 -75.54533 37899 ft 396 kts 270°
2026-05-08 01:03 43.06663 -75.61998 37901 ft 395 kts 270°
2026-05-08 01:04 43.06858 -75.69491 37904 ft 397 kts 269°
2026-05-08 01:04 43.07047 -75.77003 37896 ft 397 kts 269°
2026-05-08 01:05 43.07232 -75.84553 37905 ft 397 kts 269°
2026-05-08 01:05 43.07412 -75.92078 37906 ft 398 kts 269°
2026-05-08 01:06 43.07588 -75.99584 37917 ft 398 kts 269°
2026-05-08 01:06 43.07758 -76.07125 37915 ft 398 kts 269°
2026-05-08 01:07 43.07924 -76.14675 37912 ft 398 kts 269°
2026-05-08 01:07 43.08086 -76.22233 37920 ft 398 kts 269°
2026-05-08 01:08 43.08241 -76.29763 37917 ft 398 kts 269°
2026-05-08 01:08 43.08392 -76.37277 37912 ft 399 kts 269°
2026-05-08 01:09 43.08535 -76.44842 37912 ft 399 kts 269°
2026-05-08 01:09 43.08676 -76.52432 37909 ft 399 kts 269°
2026-05-08 01:10 43.08810 -76.59978 37914 ft 399 kts 270°
2026-05-08 01:10 43.08881 -76.67532 37910 ft 399 kts 266°
2026-05-08 01:11 43.08514 -76.75084 37911 ft 400 kts 263°
2026-05-08 01:11 43.08015 -76.82618 37912 ft 399 kts 263°
2026-05-08 01:12 43.07502 -76.90194 37914 ft 399 kts 263°
2026-05-08 01:12 43.06985 -76.97721 37909 ft 400 kts 264°
2026-05-08 01:13 43.06464 -77.05229 37916 ft 400 kts 263°
2026-05-08 01:13 43.05931 -77.12791 37684 ft 401 kts 264°
2026-05-08 01:13 43.05666 -77.16560 37460 ft 401 kts 264°
2026-05-08 01:14 43.05394 -77.20377 37240 ft 400 kts 264°
2026-05-08 01:14 43.05125 -77.24126 37025 ft 399 kts 264°
2026-05-08 01:14 43.04855 -77.27887 36806 ft 399 kts 264°
2026-05-08 01:14 43.04583 -77.31656 36588 ft 399 kts 264°
2026-05-08 01:15 43.04312 -77.35392 36369 ft 398 kts 264°
2026-05-08 01:15 43.04041 -77.39121 36151 ft 397 kts 264°
2026-05-08 01:15 43.03767 -77.42886 35929 ft 397 kts 264°
2026-05-08 01:15 43.03494 -77.46589 35711 ft 397 kts 264°
2026-05-08 01:16 43.03215 -77.50362 35488 ft 396 kts 264°
2026-05-08 01:16 43.02942 -77.54051 35268 ft 395 kts 264°
2026-05-08 01:16 43.02664 -77.57797 35046 ft 394 kts 264°
2026-05-08 01:16 43.02390 -77.61469 34824 ft 394 kts 264°
2026-05-08 01:17 43.02110 -77.65176 34597 ft 394 kts 263°
2026-05-08 01:17 43.01830 -77.68889 34373 ft 394 kts 263°
2026-05-08 01:17 43.01549 -77.72604 34147 ft 394 kts 264°
2026-05-08 01:17 43.01265 -77.76342 33920 ft 393 kts 264°
2026-05-08 01:18 43.00983 -77.80008 33698 ft 393 kts 264°
2026-05-08 01:18 43.00699 -77.83707 33475 ft 393 kts 264°
2026-05-08 01:18 43.00413 -77.87405 33251 ft 393 kts 264°
2026-05-08 01:18 43.00124 -77.91141 33049 ft 393 kts 264°
2026-05-08 01:19 42.99839 -77.94819 32854 ft 393 kts 264°
2026-05-08 01:19 42.99550 -77.98547 32662 ft 393 kts 264°
2026-05-08 01:19 42.99265 -78.02215 32471 ft 392 kts 264°
2026-05-08 01:19 42.98974 -78.05924 32276 ft 392 kts 264°
2026-05-08 01:20 42.98682 -78.09622 32081 ft 392 kts 264°
2026-05-08 01:20 42.98389 -78.13306 31885 ft 392 kts 264°
2026-05-08 01:20 42.98097 -78.16962 31690 ft 393 kts 264°
2026-05-08 01:20 42.97798 -78.20681 31489 ft 393 kts 264°
2026-05-08 01:21 42.97503 -78.24370 31292 ft 394 kts 264°
2026-05-08 01:21 42.97204 -78.28059 31075 ft 394 kts 264°
2026-05-08 01:21 42.96903 -78.31765 30701 ft 395 kts 264°
2026-05-08 01:21 42.96600 -78.35484 30144 ft 396 kts 264°
2026-05-08 01:22 42.96296 -78.39201 29485 ft 398 kts 264°
2026-05-08 01:22 42.95988 -78.42947 28743 ft 401 kts 264°
2026-05-08 01:22 42.95676 -78.46724 27951 ft 404 kts 264°
2026-05-08 01:22 42.95359 -78.50555 27339 ft 408 kts 264°
2026-05-08 01:23 42.95041 -78.54362 26742 ft 412 kts 264°
2026-05-08 01:23 42.94713 -78.58281 26132 ft 416 kts 264°
2026-05-08 01:23 42.94384 -78.62194 25512 ft 420 kts 264°
2026-05-08 01:23 42.94051 -78.66142 24850 ft 419 kts 264°
2026-05-08 01:24 42.93773 -78.70054 24173 ft 418 kts 269°
2026-05-08 01:24 42.94221 -78.73924 23478 ft 416 kts 287°
2026-05-08 01:24 42.95574 -78.77412 22878 ft 418 kts 304°
2026-05-08 01:24 42.97411 -78.80464 22268 ft 416 kts 307°
2026-05-08 01:25 42.99232 -78.83480 21638 ft 412 kts 307°
2026-05-08 01:25 43.01039 -78.86485 21008 ft 408 kts 307°
2026-05-08 01:25 43.02814 -78.89441 20397 ft 405 kts 307°
2026-05-08 01:25 43.04578 -78.92378 19795 ft 402 kts 307°
2026-05-08 01:26 43.06346 -78.95322 19199 ft 398 kts 307°
2026-05-08 01:26 43.08097 -78.98244 18604 ft 394 kts 307°
2026-05-08 01:26 43.09826 -79.01128 18013 ft 392 kts 307°
2026-05-08 01:26 43.11527 -79.03970 17435 ft 389 kts 307°
2026-05-08 01:27 43.13234 -79.06819 16852 ft 387 kts 307°
2026-05-08 01:27 43.14932 -79.09650 16314 ft 384 kts 307°
2026-05-08 01:27 43.16611 -79.12456 15814 ft 382 kts 307°
2026-05-08 01:27 43.18293 -79.15269 15272 ft 380 kts 307°
2026-05-08 01:28 43.19939 -79.18025 14722 ft 378 kts 307°
2026-05-08 01:28 43.21598 -79.20809 14158 ft 375 kts 307°
2026-05-08 01:28 43.23234 -79.23558 13601 ft 372 kts 307°
2026-05-08 01:28 43.24851 -79.26279 13044 ft 370 kts 307°
2026-05-08 01:29 43.26472 -79.29007 12486 ft 366 kts 307°
2026-05-08 01:29 43.28069 -79.31698 11930 ft 363 kts 307°
2026-05-08 01:29 43.29742 -79.34266 11474 ft 362 kts 317°
2026-05-08 01:29 43.31874 -79.36084 11296 ft 369 kts 334°
2026-05-08 01:30 43.34305 -79.37209 11119 ft 370 kts 339°
2026-05-08 01:30 43.36785 -79.38254 10950 ft 369 kts 339°
2026-05-08 01:30 43.39241 -79.39287 10935 ft 369 kts 339°
2026-05-08 01:30 43.41660 -79.40317 10929 ft 369 kts 339°
2026-05-08 01:31 43.44124 -79.41370 10896 ft 369 kts 339°
2026-05-08 01:31 43.46488 -79.42722 10894 ft 364 kts 325°
2026-05-08 01:31 43.48342 -79.44983 10909 ft 356 kts 306°
2026-05-08 01:31 43.49699 -79.47805 10918 ft 355 kts 296°
2026-05-08 01:32 43.50444 -79.50997 10914 ft 352 kts 277°
2026-05-08 01:32 43.50371 -79.54352 10931 ft 353 kts 263°
2026-05-08 01:32 43.49972 -79.57685 10937 ft 353 kts 261°
2026-05-08 01:32 43.49524 -79.60984 10934 ft 353 kts 260°
2026-05-08 01:33 43.49070 -79.64296 10921 ft 353 kts 258°
2026-05-08 01:33 43.48127 -79.67429 10886 ft 357 kts 239°
2026-05-08 01:33 43.46427 -79.69913 10910 ft 363 kts 219°
2026-05-08 01:33 43.44159 -79.71477 10924 ft 372 kts 200°
2026-05-08 01:34 43.41637 -79.72395 10937 ft 372 kts 202°
2026-05-08 01:34 43.39405 -79.73995 10928 ft 363 kts 221°
2026-05-08 01:34 43.37719 -79.76551 10908 ft 356 kts 241°
2026-05-08 01:34 43.36826 -79.79681 10913 ft 352 kts 260°
2026-05-08 01:35 43.36803 -79.82987 10923 ft 350 kts 279°
2026-05-08 01:35 43.37631 -79.86013 10916 ft 334 kts 300°
2026-05-08 01:35 43.39189 -79.88279 10920 ft 320 kts 322°
2026-05-08 01:35 43.41185 -79.89433 10903 ft 311 kts 345°
2026-05-08 01:36 43.43312 -79.89351 10908 ft 304 kts 10°
2026-05-08 01:36 43.45164 -79.88082 10920 ft 299 kts 36°
2026-05-08 01:36 43.46461 -79.85922 10927 ft 290 kts 56°
2026-05-08 01:36 43.47433 -79.83518 10927 ft 288 kts 59°
2026-05-08 01:37 43.48352 -79.81059 10908 ft 288 kts 60°
2026-05-08 01:37 43.49259 -79.78601 10917 ft 288 kts 59°
2026-05-08 01:37 43.50365 -79.76355 10924 ft 281 kts 37°
2026-05-08 01:37 43.51985 -79.75028 10919 ft 270 kts
2026-05-08 01:38 43.53816 -79.74750 10920 ft 262 kts 354°
2026-05-08 01:38 43.55643 -79.74849 10922 ft 261 kts 351°
2026-05-08 01:38 43.57441 -79.75017 10915 ft 260 kts 350°
2026-05-08 01:38 43.59251 -79.75204 10914 ft 261 kts 350°
2026-05-08 01:39 43.61054 -79.75392 10916 ft 261 kts 350°
2026-05-08 01:39 43.62875 -79.75584 10907 ft 261 kts 350°
2026-05-08 01:39 43.64681 -79.75777 10918 ft 261 kts 350°
2026-05-08 01:39 43.66502 -79.75813 10919 ft 267 kts
2026-05-08 01:40 43.68249 -79.74799 10924 ft 279 kts 31°
2026-05-08 01:40 43.69744 -79.73084 10929 ft 281 kts 38°
2026-05-08 01:40 43.71166 -79.71233 10932 ft 281 kts 39°
2026-05-08 01:40 43.72561 -79.69369 10767 ft 277 kts 40°
2026-05-08 01:41 43.73943 -79.67507 10382 ft 279 kts 40°
2026-05-08 01:41 43.75311 -79.65662 10121 ft 274 kts 40°
2026-05-08 01:41 43.76676 -79.63824 9684 ft 276 kts 40°
2026-05-08 01:41 43.78063 -79.61964 9370 ft 275 kts 40°
2026-05-08 01:42 43.79417 -79.60149 9058 ft 273 kts 40°
2026-05-08 01:42 43.80782 -79.58318 8740 ft 271 kts 40°
2026-05-08 01:42 43.82117 -79.56533 8404 ft 269 kts 40°
2026-05-08 01:42 43.83527 -79.54850 8095 ft 265 kts 32°
2026-05-08 01:43 43.85020 -79.53368 7778 ft 262 kts 30°
2026-05-08 01:43 43.86499 -79.51959 7465 ft 260 kts 30°
2026-05-08 01:43 43.88007 -79.50543 7151 ft 259 kts 30°
2026-05-08 01:43 43.89496 -79.49159 6833 ft 257 kts 30°
2026-05-08 01:44 43.90958 -79.47806 6522 ft 255 kts 30°
2026-05-08 01:44 43.92444 -79.46432 6199 ft 254 kts 30°
2026-05-08 01:44 43.93906 -79.45087 5887 ft 252 kts 30°
2026-05-08 01:44 43.95343 -79.43766 5580 ft 250 kts 32°
2026-05-08 01:45 43.96540 -79.42009 5232 ft 255 kts 60°
2026-05-08 01:45 43.96963 -79.39646 4916 ft 257 kts 91°
2026-05-08 01:45 43.96489 -79.37295 4607 ft 256 kts 122°
2026-05-08 01:45 43.95244 -79.35591 4294 ft 251 kts 153°
2026-05-08 01:46 43.93600 -79.35008 4006 ft 244 kts 185°
2026-05-08 01:46 43.91929 -79.35427 3985 ft 243 kts 197°
2026-05-08 01:46 43.90303 -79.36071 3979 ft 243 kts 199°
2026-05-08 01:46 43.88683 -79.36749 3981 ft 243 kts 199°
2026-05-08 01:47 43.87167 -79.37719 3981 ft 238 kts 219°
2026-05-08 01:47 43.85942 -79.39243 3981 ft 237 kts 230°
2026-05-08 01:47 43.84858 -79.40942 3980 ft 236 kts 231°
2026-05-08 01:48 43.82661 -79.44338 3986 ft 237 kts 230°
2026-05-08 01:48 43.81531 -79.45990 3945 ft 237 kts 229°
2026-05-08 01:48 43.80418 -79.47591 3720 ft 225 kts 229°
2026-05-08 01:48 43.79352 -79.49117 3397 ft 215 kts 229°
2026-05-08 01:49 43.78334 -79.50579 3101 ft 207 kts 229°
2026-05-08 01:49 43.77362 -79.51981 2892 ft 194 kts 229°
2026-05-08 01:49 43.76462 -79.53281 2636 ft 183 kts 229°
2026-05-08 01:49 43.75609 -79.54515 2395 ft 170 kts 229°
2026-05-08 01:50 43.74829 -79.55643 2133 ft 158 kts 229°
2026-05-08 01:50 43.74094 -79.56706 1890 ft 145 kts 230°
2026-05-08 01:50 43.73421 -79.57683 1692 ft 138 kts 230°
2026-05-08 01:50 43.72758 -79.58646 1528 ft 138 kts 229°
2026-05-08 01:51 43.72097 -79.59605 1355 ft 138 kts 229°
2026-05-08 01:51 43.71439 -79.60561 1172 ft 137 kts 229°
2026-05-08 01:51 43.70778 -79.61519 983 ft 137 kts 228°
2026-05-08 01:51 43.70126 -79.62466 796 ft 136 kts 228°
2026-05-08 01:52 43.69481 -79.63403 636 ft 135 kts 227°
2026-05-08 01:52 43.68824 -79.64348 549 ft 129 kts 229°
2026-05-08 01:52 43.68187 -79.65233 750 ft 137 kts 225°
2026-05-08 01:52 43.67510 -79.66108 1355 ft 136 kts 225°
2026-05-08 01:53 43.66811 -79.66983 1951 ft 137 kts 225°
2026-05-08 01:53 43.66083 -79.67871 2440 ft 147 kts 225°
2026-05-08 01:53 43.65302 -79.68802 3053 ft 152 kts 224°
2026-05-08 01:53 43.64502 -79.69727 3715 ft 153 kts 224°
2026-05-08 01:54 43.63652 -79.70719 4106 ft 175 kts 225°
2026-05-08 01:54 43.62868 -79.71893 4170 ft 159 kts 250°
2026-05-08 01:54 43.62811 -79.73338 4070 ft 151 kts 295°
2026-05-08 01:54 43.63543 -79.74311 3952 ft 154 kts 337°
2026-05-08 01:55 43.64618 -79.74657 3940 ft 162 kts 348°
2026-05-08 01:55 43.65773 -79.74870 4029 ft 172 kts 349°
2026-05-08 01:55 43.66984 -79.75065 4208 ft 176 kts 350°
2026-05-08 01:55 43.68204 -79.75254 4407 ft 177 kts 350°
2026-05-08 01:56 43.69437 -79.75441 4519 ft 179 kts 350°
2026-05-08 01:56 43.70660 -79.75627 4361 ft 175 kts 350°
2026-05-08 01:56 43.71874 -79.75816 4059 ft 175 kts 350°
2026-05-08 01:56 43.73083 -79.76009 4000 ft 176 kts 350°
2026-05-08 01:57 43.74322 -79.76077 3936 ft 187 kts 10°
2026-05-08 01:57 43.75508 -79.75186 3980 ft 206 kts 40°
2026-05-08 01:57 43.76469 -79.73692 3991 ft 209 kts 48°
2026-05-08 01:57 43.77354 -79.72107 3993 ft 208 kts 50°
2026-05-08 01:58 43.78231 -79.70492 3987 ft 208 kts 50°
2026-05-08 01:58 43.79094 -79.68893 3988 ft 209 kts 50°
2026-05-08 01:58 43.79964 -79.67276 3991 ft 209 kts 50°
2026-05-08 01:58 43.80825 -79.65674 3990 ft 209 kts 50°
2026-05-08 01:59 43.81705 -79.64040 3990 ft 209 kts 50°
2026-05-08 01:59 43.82577 -79.62428 3997 ft 209 kts 50°
2026-05-08 01:59 43.83447 -79.60826 3998 ft 209 kts 50°
2026-05-08 01:59 43.84316 -79.59226 3997 ft 208 kts 50°
2026-05-08 02:00 43.85190 -79.57618 3996 ft 208 kts 50°
2026-05-08 02:00 43.86023 -79.55978 3986 ft 210 kts 62°
2026-05-08 02:00 43.86283 -79.54009 3949 ft 212 kts 98°
2026-05-08 02:00 43.85698 -79.52158 3659 ft 213 kts 130°
2026-05-08 02:01 43.84661 -79.50680 3371 ft 213 kts 137°
2026-05-08 02:01 43.83553 -79.49352 3177 ft 209 kts 146°
2026-05-08 02:01 43.82246 -79.48686 3013 ft 197 kts 184°
2026-05-08 02:01 43.80959 -79.48951 3056 ft 174 kts 197°
2026-05-08 02:02 43.79862 -79.49375 3018 ft 156 kts 205°
2026-05-08 02:02 43.78925 -79.50079 3013 ft 152 kts 219°
2026-05-08 02:02 43.78105 -79.50991 3006 ft 151 kts 226°
2026-05-08 02:02 43.77348 -79.51994 2850 ft 150 kts 229°
2026-05-08 02:03 43.76618 -79.53037 2644 ft 153 kts 230°
2026-05-08 02:03 43.75890 -79.54097 2434 ft 152 kts 230°
2026-05-08 02:03 43.75154 -79.55167 2224 ft 153 kts 230°
2026-05-08 02:03 43.74438 -79.56207 2007 ft 147 kts 229°
2026-05-08 02:04 43.73735 -79.57226 1817 ft 146 kts 229°
2026-05-08 02:04 43.73036 -79.58240 1618 ft 141 kts 229°
2026-05-08 02:04 43.72377 -79.59196 1428 ft 138 kts 229°
2026-05-08 02:04 43.71720 -79.60149 1247 ft 137 kts 229°
2026-05-08 02:05 43.71062 -79.61105 1064 ft 137 kts 228°
2026-05-08 02:05 43.70400 -79.62067 875 ft 137 kts 228°
2026-05-08 02:05 43.69747 -79.63016 689 ft 136 kts 228°
2026-05-08 02:05 43.69100 -79.63966 548 ft 130 kts 226°
2026-05-08 02:06 43.68597 -79.64707 542 ft 76 kts 225°
2026-05-08 02:06 43.68411 -79.64959 541 ft 18 kts 227°
2026-05-08 02:06 43.68308 -79.65053 540 ft 18 kts 202°
2026-05-08 02:06 43.68199 -79.65097 542 ft 5 kts 194°
2026-05-08 02:07 43.68164 -79.65108 543 ft 4 kts 189°
2026-05-08 02:07 43.68134 -79.65101 544 ft 5 kts 157°
2026-05-08 02:07 43.68102 -79.65059 543 ft 8 kts 111°
2026-05-08 02:07 43.68124 -79.64974 539 ft 12 kts 48°
2026-05-08 02:08 43.68195 -79.64871 536 ft 15 kts 45°
2026-05-08 02:08 43.68272 -79.64757 536 ft 16 kts 46°
2026-05-08 02:08 43.68357 -79.64636 536 ft 17 kts 47°
2026-05-08 02:08 43.68439 -79.64514 538 ft 17 kts 46°
2026-05-08 02:09 43.68513 -79.64409 537 ft 18 kts 46°
2026-05-08 02:09 43.68601 -79.64283 538 ft 18 kts 47°
2026-05-08 02:09 43.68688 -79.64156 539 ft 18 kts 48°
2026-05-08 02:09 43.68775 -79.64029 539 ft 18 kts 45°
2026-05-08 02:10 43.68862 -79.63899 541 ft 17 kts 47°
2026-05-08 02:10 43.68944 -79.63777 544 ft 16 kts 46°
2026-05-08 02:10 43.69017 -79.63674 543 ft 11 kts 55°
2026-05-08 02:10 43.69007 -79.63588 546 ft 9 kts 133°
2026-05-08 02:11 43.68953 -79.63517 549 ft 14 kts 136°
2026-05-08 02:11 43.68860 -79.63393 551 ft 22 kts 137°
2026-05-08 02:11 43.68748 -79.63249 554 ft 21 kts 136°
2026-05-08 02:11 43.68646 -79.63113 556 ft 19 kts 136°
2026-05-08 02:12 43.68547 -79.62986 558 ft 18 kts 136°
2026-05-08 02:12 43.68456 -79.62865 560 ft 17 kts 137°
2026-05-08 02:12 43.68429 -79.62760 562 ft 12 kts 57°
2026-05-08 02:12 43.68488 -79.62671 563 ft 13 kts 46°
2026-05-08 02:13 43.68572 -79.62624 562 ft 13 kts 20°
2026-05-08 02:13 43.68634 -79.62539 563 ft 11 kts 47°
2026-05-08 02:13 43.68677 -79.62547 562 ft 0 kts 316°
2026-05-08 02:13 43.68685 -79.62573 561 ft 2 kts 302°